Flag for USA

Past Weather in Orlando, Florida, USA — Yesterday and Last 2 Weeks

Now
76 °F

Low clouds.


Feels Like: 75 °F
Forecast: 88 / 75 °F
Wind: 7 mph from South

Location: Orlando Executive Airport
Current Time: Sep 29, 2020 at 8:00:35 am
Latest Report: Sep 29, 2020 at 6:53 am
Visibility: 10 mi
Pressure29.89 "Hg
Humidity: 97%
Dew Point: 75 °F
Location of OrlandoLocation

Past Weather in Orlando — Graph

°F

Orlando Temperature Yesterday

Maximum temperature yesterday: 88 °F (at 12:53 pm)
Minimum temperature yesterday: 75 °F (at 12:53 am)
Average temperature yesterday: 78 °F

High & Low Weather Summary for the Past Weeks

 TemperatureHumidityPressure
High94 °F (Sep 25, 4:53 pm)100% (Sep 27, 10:53 pm)30.11 "Hg (Sep 27, 10:53 pm)
Low72 °F (Sep 23, 2:53 am)45% (Sep 22, 11:53 am)29.83 "Hg (Sep 17, 4:28 pm)
Average81 °F80%29.97 "Hg
* Reported Sep 14 5:53 am — Sep 29 5:53 am, Orlando. Weather by CustomWeather, © 2020

Note: Actual official high and low records may vary slightly from our data, if they occured in-between our weather recording intervals... More about our weather records

Orlando Weather History for the Previous 24 Hours

Scroll right to see more
 ConditionsComfort  
Time TempWeatherWind HumidityBarometerVisibility
5:53 am
Tue, Sep 29
76 °FLow clouds.6 mph100%29.88 "Hg10 mi
4:53 am75 °FPassing clouds.3 mph96%29.88 "Hg8 mi
4:33 am75 °FFog.No wind96%29.87 "Hg5 mi
3:53 am75 °FClear.3 mph96%29.88 "Hg9 mi
3:32 am75 °FPassing clouds.No wind96%29.87 "Hg8 mi
2:53 am75 °FPassing clouds.3 mph96%29.89 "Hg7 mi
1:53 am75 °FPassing clouds.No wind96%29.90 "Hg10 mi
1:02 am75 °FPassing clouds.5 mph96%29.92 "Hg10 mi
12:53 am75 °FPassing clouds.No wind96%29.93 "Hg10 mi
11:53 pm
Mon, Sep 28
75 °FClear.No wind100%29.93 "Hg10 mi
10:53 pm75 °FClear.3 mph96%29.93 "Hg10 mi
9:53 pm76 °FClear.No wind97%29.92 "Hg10 mi
8:53 pm76 °FPassing clouds.No wind94%29.92 "Hg10 mi
7:53 pm76 °FPassing clouds.6 mph97%29.91 "Hg10 mi
6:53 pm77 °FLight rain. Partly sunny.3 mph94%29.89 "Hg8 mi
5:53 pm76 °FRain. Fog.5 mph94%29.88 "Hg4 mi
5:29 pm75 °FThundershowers. Fog.8 mph94%29.88 "Hg4 mi
5:19 pm76 °FRain. Fog.12 mph91%29.88 "Hg5 mi
4:53 pm76 °FThunderstorms. Fog.10 mph97%29.90 "Hg4 mi
4:34 pm77 °FStrong thunderstorms. Fog.7 mph90%29.90 "Hg1 mi
3:53 pm79 °FThunderstorms. Mostly cloudy.9 mph82%29.87 "Hg10 mi
2:53 pm82 °FHeavy rain. Cloudy.5 mph85%29.87 "Hg10 mi
2:34 pm83 °FLight rain. Cloudy.6 mph74%29.88 "Hg6 mi
2:20 pm82 °FHeavy rain. Mostly cloudy.9 mph82%29.89 "Hg1 mi
1:59 pm80 °FHeavy rain. Mostly cloudy.15 mph85%29.90 "Hg1 mi
1:37 pm83 °FHeavy rain. Mostly cloudy.No wind77%29.90 "Hg4 mi
12:53 pm88 °FScattered clouds.N/A67%29.92 "Hg10 mi
11:53 am85 °FSunny.8 mph80%29.94 "Hg10 mi
10:53 am82 °FSunny.3 mph88%29.96 "Hg10 mi
9:53 am80 °FSunny.No wind90%29.96 "Hg10 mi
8:53 am79 °FScattered clouds.No wind90%29.95 "Hg10 mi
Weather by CustomWeather, © 2020

See weather overview